Regional Weather Roundup
Issued by NWS

Home | Current Version | Previous Version | Graphics & Text | Print | Product List | Glossary On
Versions: 1 2 3 4 5 6 7 8 9 10 11 12 13 14 15 16 17 18 19 20 21 22 23 24 25 26 27 28 29 30 31 32 33 34 35 36 37 38 39 40 41 42 43 44 45 46 47 48 49 50
000
ASUS43 KLMK 260510
RWRKY
KENTUCKY REGIONAL WEATHER ROUNDUP
NATIONAL WEATHER SERVICE LOUISVILLE KY
100 AM EDT WED APR 26 2017

NOTE "FAIR" INDICATES FEW OR NO CLOUDS BELOW 12,000 FEET
WITH NO SIGNIFICANT WEATHER AND/OR OBSTRUCTIONS TO VISIBILITY.

KYZ001>023-026-027-061>063-070>075-260600-
WESTERN AND SOUTH CENTRAL KENTUCKY

CITY           SKY/WX    TMP DP  RH WIND       PRES   REMARKS
PADUCAH        CLOUDY    70  53  54 S6        29.60S
HENDERSON      CLEAR     64  57  78 SE5       29.63R
OWENSBORO      CLEAR     65  57  75 SE9       29.64R
HOPKINSVILLE   CLEAR     66  57  72 SE8       29.63F
BOWLING GREEN  CLEAR     63  57  81 SE7       29.68S
GLASGOW        CLEAR     62  54  74 SE6       29.69F
$$

KYZ024-025-028>034-038-045-046-053-260600-
NORTH CENTRAL KENTUCKY

CITY           SKY/WX    TMP DP  RH WIND       PRES   REMARKS
LOUISVILLE/SDF PTCLDY    65  57  75 SE9       29.67F
LOUISVILLE/LOU PTCLDY    66  57  72 S5        29.68F
FORT KNOX      CLEAR     61  55  82 SE6       29.66F
$$

KYZ035>037-039>044-047>052-055>060-089>105-260600-
NORTHEAST KENTUCKY

CITY           SKY/WX    TMP DP  RH WIND       PRES   REMARKS
LEXINGTON      CLEAR     60  53  77 S6        29.72S
COVINGTON      CLEAR     61  56  83 S5        29.70S
FRANKFORT      CLEAR     61  53  75 SE6       29.70S
$$

KYZ054-064>069-076>088-106>120-260600-
SOUTHEAST KENTUCKY

CITY           SKY/WX    TMP DP  RH WIND       PRES   REMARKS
JACKSON        CLEAR     61  55  81 S3        29.75S
LONDON         CLEAR     58  54  86 CALM      29.75S
SOMERSET       CLEAR     54  54 100 CALM      29.75F
MIDDLESBORO    CLEAR     54  54 100 CALM      29.78S
MONTICELLO     CLEAR     53  52  96 VRB5      29.75F
$$





USA.gov is the U.S. government's official web portal to all federal, state and local government web resources and services.